Location: Brompton
(51.4000°N, 0.5333°E)
Time: 08:24:48
(UTC+00:00)

Cosmos 1844 Rocket - Pass Details

Date: 11 May 2021
Orbit: 823 x 845 km, 71.0° (Epoch: 13 June)

Event Time Altitude Azimuth Distance (km) Brightness Sun altitude
Rises 20:21:28 0° 215° (SW) 3,350 5.8 -6.5°
Reaches altitude 10° 20:23:54 10° 218° (SW) 2,422 5.1 -6.7°
Maximum altitude 20:29:26 71° 303° (WNW) 876 3.1 -7.4°
Drops below altitude 10° 20:35:02 10° 27° (NNE) 2,448 5.3 -8.0°
Sets 20:37:31 0° 30° (NNE) 3,389 6.0 -8.3°
